[[{"header":{"parameterUnit":"m.s-1","parameterCategory":1,"la1":30.2991,"la2":30.254,"lo1":-89.0895,"lo2":-89.0444,"dy":0.0017,"dx":0.0017,"nx":28,"ny":28,"refTime":"2024-10-16T21:00:00:Z","depth":0,"parameterNumber":2,"parameterNumberName":"U-component_of_WINDS"},"data":[0,0,0,0,0,0,0,0,0,0,0,0,0,0,0,0,0,0,0,0,0,0,0,0,0,0,0,0,0,0,0,0,0,0,0,0,0,0,0,0,0,0,0,0,0,0,0,0,0,0,0,0,0,0,0,0,0,0,-2.3357,-2.3357,0,-2.3347,-2.3347,-2.3346,-2.329,-2.3289,-2.3288,-2.3286,-2.3277,-2.3278,-2.3279,0,0,0,0,0,0,0,0,0,0,0,0,0,-2.333,-2.3331,-2.3357,-2.3357,-2.3357,-2.3347,-2.3347,-2.3346,-2.329,-2.3289,-2.3287,-2.3286,-2.3276,-2.3278,-2.3279,0,0,0,0,0,0,0,0,0,0,0,0,0,-2.3333,-2.3331,-2.3357,-2.3328,-2.3325,-2.3347,-2.3347,-2.3346,-2.3291,-2.3289,-2.3287,-2.3285,-2.3276,-2.3277,-2.3279,-2.3328,0,0,-2.3284,-2.3284,0,0,0,0,0,0,0,0,-2.3333,-2.3334,-2.3332,-2.333,-2.3327,-2.3318,-2.3333,-2.334,-2.3291,-2.3304,-2.3286,-2.3284,-2.3292,-2.3292,-2.3295,-2.3328,-2.3328,-2.3284,-2.3285,-2.3285,-2.3286,0,0,0,0,0,0,0,-2.3333,-2.3334,-2.3353,-2.3332,-2.3329,-2.3315,-2.3314,-2.3334,-2.3309,-2.3303,-2.3299,-2.3298,-2.329,-2.3293,-2.3294,-2.3327,-2.3284,-2.3285,-2.3286,-2.3286,-2.3401,-2.3403,0,0,0,0,0,0,-2.3337,-2.3334,-2.3353,-2.3353,-2.3325,-2.3318,-2.3316,-2.3323,-2.3309,-2.3305,-2.33,-2.3295,-2.3292,-2.3292,-2.3293,-2.3351,-2.3285,-2.3287,-2.3287,-2.3399,-2.3401,-2.3404,0,0,0,0,0,0,-2.3336,-2.3339,-2.3354,-2.3343,-2.3343,-2.332,-2.3329,-2.3324,-2.3327,-2.3307,-2.3302,-2.3307,-2.329,-2.3291,-2.332,-2.335,-2.3287,-2.3289,-2.3396,-2.34,-2.3403,-2.3466,0,0,0,0,0,0,-2.3336,-2.3339,-2.3358,-2.3343,-2.3344,-2.3381,-2.333,-2.3325,-2.3329,-2.3323,-2.3313,-2.3309,-2.3289,-2.3318,-2.3322,-2.3351,-2.329,-2.3394,-2.3398,-2.3402,-2.3461,-2.3471,-2.3479,0,0,0,0,0,-2.3335,-2.3376,-2.3359,-2.3361,-2.3367,-2.3383,-2.3383,-2.3358,-2.3332,-2.335,-2.3337,-2.3309,-2.3346,-2.3322,-2.3325,-2.3355,-2.3392,-2.3397,-2.3401,-2.3457,-2.3469,-2.3479,0,0,0,0,0,0,-2.3395,-2.3374,-2.3354,-2.3392,-2.3389,-2.3373,-2.3396,-2.3372,-2.3377,-2.3372,-2.3341,-2.3339,-2.3372,-2.3366,-2.334,-2.3402,-2.3364,-2.337,-2.3405,-2.3416,-2.3425,-2.3426,-2.3291,0,0,0,0,0,-2.3413,-2.3427,-2.3407,-2.3443,-2.3442,-2.3419,-2.3425,-2.3406,-2.3403,-2.3401,-2.3391,-2.3389,-2.3399,-2.3407,-2.3416,-2.3459,-2.3457,-2.3482,-2.3491,-2.3498,-2.3504,-2.3527,-2.3538,-2.342,-2.342,-2.342,0,0,-2.3449,-2.3439,-2.345,-2.3454,-2.345,-2.3466,-2.3419,-2.3438,-2.3449,-2.3404,-2.3431,-2.3423,-2.3419,-2.3455,-2.3471,-2.3451,-2.3536,-2.3505,-2.3511,-2.3512,-2.3533,-2.3544,-2.3554,-2.3423,-2.3422,-2.3422,0,0,-2.3524,-2.3518,-2.3546,-2.3543,-2.3537,-2.3521,-2.3528,-2.3515,-2.3508,-2.3534,-2.3501,-2.3514,-2.3533,-2.3532,-2.3533,-2.3607,-2.3582,-2.3611,-2.3659,-2.3681,-2.3691,-2.3699,-2.3726,-2.3736,-2.3616,-2.3616,-2.3616,0,-2.3571,-2.3593,-2.3564,-2.3585,-2.3588,-2.3547,-2.3577,-2.3575,-2.3572,-2.3575,-2.3553,-2.3576,-2.357,-2.3606,-2.3624,-2.3626,-2.3634,-2.3612,-2.3691,-2.3699,-2.3707,-2.3732,-2.3742,-2.362,-2.362,-2.3619,-2.3619,0,-2.3651,-2.3667,-2.369,-2.3688,-2.3694,-2.3719,-2.3694,-2.3703,-2.3684,-2.3671,-2.3698,-2.3689,-2.3695,-2.3702,-2.3683,-2.3735,-2.3723,-2.3697,-2.3658,-2.3722,-2.3745,-2.3755,-2.3625,-2.3624,-2.3623,-2.3622,0,0,-2.3765,-2.3746,-2.3755,-2.3754,-2.3744,-2.3756,-2.3778,-2.3784,-2.3793,-2.3792,-2.3811,-2.3828,-2.3803,-2.3805,-2.3786,-2.3805,-2.3865,-2.3776,-2.3776,-2.3794,-2.3922,-2.3943,-2.3955,-2.3848,-2.3849,-2.3851,-2.3923,0,-2.3837,-2.3875,-2.385,-2.3892,-2.3906,-2.3867,-2.3887,-2.3884,-2.3872,-2.3883,-2.3869,-2.3882,-2.3848,-2.3849,-2.3867,-2.3854,-2.3891,-2.3848,-2.3866,-2.3867,-2.3869,-2.3967,-2.3989,-2.4058,-2.3932,-2.3933,-2.3934,0,-2.3927,-2.3929,-2.3973,-2.396,-2.3965,-2.3984,-2.3987,-2.3997,-2.3992,-2.3982,-2.3984,-2.3959,-2.3981,-2.3942,-2.3972,-2.3944,-2.395,-2.3945,-2.3947,-2.3948,-2.3905,-2.3972,-2.4079,-2.409,-2.3948,-2.3947,-2.3946,0,-2.4006,-2.4021,-2.4049,-2.4049,-2.4034,-2.4048,-2.4042,-2.4035,-2.404,-2.4043,-2.4046,-2.4052,-2.4055,-2.406,-2.4037,-2.4011,-2.4071,-2.403,-2.4064,-2.4065,-2.4079,-2.4079,-2.419,-2.4081,-2.4081,-2.4081,-2.4081,0,-2.4091,-2.4119,-2.4084,-2.4102,-2.4133,-2.4103,-2.4134,-2.4125,-2.4119,-2.4134,-2.41,-2.4115,-2.4084,-2.4096,-2.4079,-2.4107,-2.4108,-2.4101,-2.4097,-2.4105,-2.4106,-2.4109,-2.4104,-2.4084,-2.4083,-2.4082,-2.4082,0,-2.4185,-2.4163,-2.4191,-2.4174,-2.4171,-2.4195,-2.418,-2.4196,-2.4181,-2.4201,-2.4204,-2.4181,-2.4193,-2.4171,-2.4181,-2.4169,-2.4208,-2.4196,-2.421,-2.4207,-2.4242,-2.424,-2.436,-2.4374,-2.4256,-2.4257,-2.4258,0,-2.4241,-2.4262,-2.4247,-2.4255,-2.4251,-2.4263,-2.4268,-2.4239,-2.4246,-2.4241,-2.4258,-2.4267,-2.4273,-2.4295,-2.4279,-2.4287,-2.4274,-2.4316,-2.4275,-2.4283,-2.4276,-2.4276,-2.4278,-2.4325,-2.4326,-2.4327,-2.4328,0,-2.4343,-2.433,-2.4338,-2.4342,-2.4349,-2.4351,-2.435,-2.4358,-2.4328,-2.4337,-2.4349,-2.4353,-2.4363,-2.4373,-2.4376,-2.4371,-2.4345,-2.4341,-2.4349,-2.4359,-2.4367,-2.4364,-2.4234,-2.4339,-2.4338,-2.4337,-2.4336,-2.4336,-2.442,-2.4437,-2.4429,-2.4439,-2.4435,-2.4436,-2.4449,-2.4436,-2.4445,-2.445,-2.4433,-2.4449,-2.4443,-2.4445,-2.4442,-2.4455,-2.4436,-2.4448,-2.4451,-2.4455,-2.4461,-2.4364,-2.4455,-2.4455,-2.4454,-2.4454,-2.4454,0,-2.4521,-2.4513,-2.4523,-2.4523,-2.4531,-2.4504,-2.4502,-2.4511,-2.4525,-2.4521,-2.4528,-2.4541,-2.4551,-2.4536,-2.4543,-2.4556,-2.4544,-2.4559,-2.4558,-2.4557,-2.4477,-2.4469,-2.4568,-2.4568,-2.4568,-2.4568,-2.4568,-2.4568,-2.4574,-2.4601,-2.4588,-2.4613,-2.4605,-2.462,-2.4622,-2.4622,-2.4619,-2.4635,-2.4643,-2.4632,-2.4624,-2.463,-2.4638,-2.4633,-2.4638,-2.4657,-2.4649,-2.4574,-2.4563,-2.4552,-2.4545,-2.4658,-2.4658,-2.4728,-2.4728,-2.4729]},{"header":{"parameterUnit":"m.s-1","parameterCategory":1,"la1":30.2991,"la2":30.254,"lo1":-89.0895,"lo2":-89.0444,"dy":0.0017,"dx":0.0017,"nx":28,"ny":28,"refTime":"2024-10-16T21:00:00:Z","depth":0,"parameterNumber":3,"parameterNumberName":"V-component_of_WINDS"},"data":[0,0,0,0,0,0,0,0,0,0,0,0,0,0,0,0,0,0,0,0,0,0,0,0,0,0,0,0,0,0,0,0,0,0,0,0,0,0,0,0,0,0,0,0,0,0,0,0,0,0,0,0,0,0,0,0,0,0,-7.3069,-7.3069,0,-7.3109,-7.311,-7.311,-7.304,-7.3038,-7.3035,-7.3033,-7.307,-7.3073,-7.3076,0,0,0,0,0,0,0,0,0,0,0,0,0,-7.2927,-7.293,-7.3069,-7.3069,-7.307,-7.3109,-7.311,-7.311,-7.304,-7.3038,-7.3035,-7.3032,-7.3069,-7.3073,-7.3076,0,0,0,0,0,0,0,0,0,0,0,0,0,-7.298,-7.2931,-7.3069,-7.304,-7.3038,-7.3109,-7.311,-7.3111,-7.3041,-7.3037,-7.3034,-7.3031,-7.3068,-7.3072,-7.3077,-7.3177,0,0,-7.3091,-7.3093,0,0,0,0,0,0,0,0,-7.2977,-7.2985,-7.3044,-7.3042,-7.304,-7.3066,-7.3073,-7.3133,-7.3042,-7.304,-7.3033,-7.3029,-7.3071,-7.3075,-7.3091,-7.3179,-7.318,-7.3092,-7.3095,-7.3097,-7.3098,0,0,0,0,0,0,0,-7.2974,-7.2983,-7.3085,-7.3044,-7.3042,-7.3024,-7.3027,-7.3084,-7.3074,-7.304,-7.3035,-7.3041,-7.3069,-7.3086,-7.3091,-7.3181,-7.3092,-7.3096,-7.3099,-7.3101,-7.3354,-7.3358,0,0,0,0,0,0,-7.2974,-7.2981,-7.3083,-7.3086,-7.2999,-7.3029,-7.3033,-7.3061,-7.3074,-7.3072,-7.3044,-7.3037,-7.308,-7.3085,-7.3092,-7.3211,-7.3097,-7.3101,-7.3104,-7.335,-7.3355,-7.3359,0,0,0,0,0,0,-7.2971,-7.2984,-7.3082,-7.3032,-7.3043,-7.3035,-7.3067,-7.3064,-7.3081,-7.3077,-7.3074,-7.3063,-7.3077,-7.3085,-7.3157,-7.3211,-7.3103,-7.3108,-7.3346,-7.3352,-7.3357,-7.345,0,0,0,0,0,0,-7.2968,-7.2983,-7.3022,-7.3033,-7.3046,-7.3148,-7.3071,-7.3067,-7.309,-7.3082,-7.3094,-7.3093,-7.3075,-7.315,-7.3162,-7.3216,-7.3111,-7.3341,-7.3349,-7.3355,-7.3442,-7.3458,-7.3472,0,0,0,0,0,-7.2963,-7.3045,-7.3025,-7.3037,-7.3095,-7.3151,-7.3158,-7.3137,-7.3094,-7.3133,-7.313,-7.3092,-7.3204,-7.3158,-7.317,-7.3227,-7.3337,-7.3346,-7.3355,-7.3435,-7.3455,-7.3471,0,0,0,0,0,0,-7.3038,-7.3046,-7.3023,-7.3112,-7.3132,-7.3139,-7.3187,-7.3158,-7.3189,-7.318,-7.3151,-7.3155,-7.3233,-7.3236,-7.3186,-7.3325,-7.3263,-7.3275,-7.332,-7.3339,-7.3353,-7.3351,-7.3115,0,0,0,0,0,-7.3066,-7.3112,-7.3116,-7.3194,-7.3205,-7.3195,-7.3218,-7.3201,-7.3219,-7.3226,-7.3229,-7.3247,-7.3286,-7.3312,-7.3348,-7.3442,-7.3444,-7.3487,-7.3502,-7.3514,-7.3525,-7.3576,-7.3595,-7.3388,-7.3388,-7.3388,0,0,-7.3122,-7.3132,-7.3162,-7.3209,-7.3222,-7.327,-7.3202,-7.3255,-7.329,-7.3234,-7.3303,-7.3306,-7.3324,-7.3408,-7.3444,-7.3413,-7.3582,-7.3525,-7.3535,-7.3539,-7.3587,-7.3606,-7.3624,-7.3394,-7.3393,-7.3392,0,0,-7.3249,-7.3261,-7.3329,-7.3344,-7.3365,-7.3358,-7.3374,-7.3387,-7.3387,-7.3456,-7.3416,-7.3456,-7.3523,-7.3539,-7.3555,-7.369,-7.3657,-7.3702,-7.3781,-7.3831,-7.3847,-7.3862,-7.3911,-7.3929,-7.3713,-7.3713,-7.3713,0,-7.3316,-7.3388,-7.3366,-7.3423,-7.3445,-7.3399,-7.3466,-7.3481,-7.3512,-7.3528,-7.3493,-7.3578,-7.3587,-7.3674,-7.3708,-7.3722,-7.374,-7.3701,-7.3847,-7.3861,-7.3874,-7.3921,-7.3939,-7.3718,-7.3718,-7.3717,-7.3717,0,-7.3469,-7.352,-7.3571,-7.3606,-7.3633,-7.3695,-7.3682,-7.3712,-7.3692,-7.3689,-7.376,-7.3769,-7.3806,-7.3825,-7.3806,-7.391,-7.3891,-7.3852,-7.3789,-7.39,-7.3943,-7.3961,-7.3726,-7.3724,-7.3723,-7.3721,0,0,-7.3644,-7.3668,-7.3687,-7.3703,-7.3724,-7.3762,-7.3821,-7.386,-7.3887,-7.391,-7.3959,-7.4019,-7.3984,-7.4002,-7.3984,-7.4028,-7.4136,-7.3984,-7.3984,-7.4012,-7.4253,-7.4282,-7.4303,-7.4114,-7.4117,-7.412,-7.4251,0,-7.3772,-7.3878,-7.386,-7.3962,-7.4008,-7.3966,-7.4018,-7.4036,-7.4034,-7.4073,-7.407,-7.4113,-7.4063,-7.4074,-7.4116,-7.4114,-7.4184,-7.4104,-7.4159,-7.4161,-7.4157,-7.4326,-7.4357,-7.4481,-7.4268,-7.4271,-7.4273,0,-7.3935,-7.3967,-7.4074,-7.409,-7.4109,-7.4156,-7.4191,-7.4228,-7.4248,-7.4243,-7.4266,-7.424,-7.4298,-7.4235,-7.4316,-7.4262,-7.4283,-7.4286,-7.429,-7.4295,-7.4224,-7.4336,-7.452,-7.4539,-7.4299,-7.4297,-7.4295,0,-7.4054,-7.4123,-7.4197,-7.4211,-7.4231,-7.4265,-7.4275,-7.4291,-7.4316,-7.4345,-7.4361,-7.4397,-7.4416,-7.4444,-7.4428,-7.4383,-7.4512,-7.4446,-7.4509,-7.451,-7.4539,-7.4537,-7.473,-7.4551,-7.4551,-7.4551,-7.455,0,-7.4198,-7.4265,-7.4251,-7.4296,-7.437,-7.4349,-7.4423,-7.4427,-7.4442,-7.4486,-7.445,-7.4493,-7.4469,-7.4509,-7.4496,-7.4566,-7.4574,-7.4572,-7.4568,-7.4576,-7.4577,-7.459,-7.4581,-7.4556,-7.4555,-7.4554,-7.4553,0,-7.4343,-7.4336,-7.4414,-7.4427,-7.4432,-7.4486,-7.4496,-7.4538,-7.4534,-7.4591,-7.4603,-7.4597,-7.4642,-7.4629,-7.4678,-7.467,-7.4758,-7.4742,-7.4752,-7.4748,-7.4813,-7.4807,-7.5021,-7.5048,-7.4852,-7.4854,-7.4855,0,-7.4436,-7.4488,-7.4507,-7.4536,-7.4549,-7.4594,-7.462,-7.4602,-7.463,-7.4657,-7.4696,-7.4739,-7.4772,-7.4847,-7.4846,-7.4883,-7.4868,-7.4941,-7.4874,-7.4881,-7.4871,-7.4868,-7.4874,-7.4954,-7.4957,-7.4959,-7.496,0,-7.4603,-7.4598,-7.4637,-7.4677,-7.471,-7.4739,-7.4764,-7.4789,-7.4772,-7.4806,-7.4853,-7.4879,-7.4931,-7.4974,-7.5008,-7.5016,-7.4986,-7.4981,-7.4998,-7.5007,-7.5011,-7.5011,-7.4789,-7.4976,-7.4975,-7.4974,-7.4973,-7.4972,-7.4726,-7.477,-7.4792,-7.4837,-7.4855,-7.4881,-7.4922,-7.4924,-7.4964,-7.5006,-7.4991,-7.5046,-7.5064,-7.5108,-7.5121,-7.5162,-7.5134,-7.5158,-7.5165,-7.5171,-7.518,-7.5004,-7.5168,-7.5168,-7.5167,-7.5167,-7.5166,0,-7.4891,-7.4904,-7.4946,-7.4985,-7.5021,-7.4991,-7.5019,-7.505,-7.51,-7.5121,-7.5155,-7.521,-7.5252,-7.5255,-7.5294,-7.5327,-7.5314,-7.5338,-7.5336,-7.5338,-7.5202,-7.5184,-7.5348,-7.5348,-7.5348,-7.5348,-7.5348,-7.5348,-7.4982,-7.5056,-7.5053,-7.5136,-7.5147,-7.5202,-7.522,-7.5243,-7.526,-7.5324,-7.536,-7.5362,-7.5376,-7.5416,-7.5453,-7.5453,-7.5469,-7.5499,-7.5493,-7.5366,-7.5348,-7.5331,-7.5314,-7.5502,-7.5503,-7.5626,-7.5628,-7.5628]}]]